VLG11KG LEZL-GCLP

Flight info

Callsign VLG11KG
Flight time N/A
Altitude 37000
Route CLANA N857 KORNO UN857 TERTO
Aircraft A320/M-SDE3FGHIRWY/LB1

Departure

Time 2026-04-27 21:21
Airport Seville Airport (LEZL)

Arrival

Time N/A
Airport Gran Canaria Airport (GCLP)
Time Latitude Longitude Altitude Speed Heading
2026-04-27 21:05 37.42107 -5.90179 90 ft 0 kts 33°
2026-04-27 21:14 37.42104 -5.90181 90 ft 2 kts 33°
2026-04-27 21:14 37.42091 -5.90192 89 ft 2 kts 32°
2026-04-27 21:14 37.42077 -5.90203 89 ft 2 kts 33°
2026-04-27 21:15 37.42064 -5.90214 88 ft 2 kts 32°
2026-04-27 21:15 37.42052 -5.90226 88 ft 2 kts 65°
2026-04-27 21:15 37.42050 -5.90244 88 ft 2 kts 97°
2026-04-27 21:15 37.42050 -5.90264 88 ft 2 kts 88°
2026-04-27 21:16 37.42050 -5.90271 88 ft 0 kts 90°
2026-04-27 21:17 37.42050 -5.90249 88 ft 5 kts 89°
2026-04-27 21:17 37.42050 -5.90182 88 ft 11 kts 89°
2026-04-27 21:17 37.42050 -5.89981 89 ft 28 kts 90°
2026-04-27 21:18 37.41984 -5.89828 91 ft 17 kts 97°
2026-04-27 21:18 37.41981 -5.89653 91 ft 21 kts 83°
2026-04-27 21:18 37.41980 -5.89451 91 ft 23 kts 89°
2026-04-27 21:18 37.41981 -5.89228 91 ft 27 kts 90°
2026-04-27 21:19 37.41983 -5.88930 91 ft 36 kts 90°
2026-04-27 21:19 37.41977 -5.88642 94 ft 30 kts 93°
2026-04-27 21:19 37.41983 -5.88383 97 ft 28 kts 89°
2026-04-27 21:20 37.41985 -5.87880 103 ft 27 kts 90°
2026-04-27 21:20 37.41985 -5.87630 105 ft 27 kts 90°
2026-04-27 21:20 37.41902 -5.87430 107 ft 26 kts 169°
2026-04-27 21:20 37.41800 -5.87571 106 ft 24 kts 270°
2026-04-27 21:21 37.41798 -5.87858 101 ft 56 kts 269°
2026-04-27 21:21 37.41795 -5.88713 93 ft 125 kts 270°
2026-04-27 21:21 37.41797 -5.90118 205 ft 168 kts 269°
2026-04-27 21:21 37.41815 -5.91649 770 ft 174 kts 272°
2026-04-27 21:22 37.42194 -5.93151 1209 ft 189 kts 310°
2026-04-27 21:22 37.43266 -5.94318 1613 ft 210 kts 321°
2026-04-27 21:22 37.44228 -5.95816 2055 ft 229 kts 292°
2026-04-27 21:22 37.44471 -5.97828 2434 ft 246 kts 269°
2026-04-27 21:23 37.44362 -6.00086 2834 ft 264 kts 268°
2026-04-27 21:23 37.44294 -6.02414 3385 ft 273 kts 266°
2026-04-27 21:23 37.43855 -6.04444 3956 ft 277 kts 238°
2026-04-27 21:23 37.42495 -6.06112 4723 ft 275 kts 208°
2026-04-27 21:24 37.40801 -6.07166 5516 ft 275 kts 203°
2026-04-27 21:24 37.39060 -6.08177 6283 ft 276 kts 204°
2026-04-27 21:24 37.37355 -6.09236 7071 ft 277 kts 206°
2026-04-27 21:24 37.35643 -6.10375 7852 ft 279 kts 208°
2026-04-27 21:25 37.33960 -6.11546 8601 ft 281 kts 209°